Historique des stations

Station météo de Athée-sur-Cher

Altitude de la station : 93 m







Données météorologiques pour le 05/12/2021
Date
Heure
Températures Humidité Point de rosée Vitesse
du vent
Direction Rafales Windchill Pression Pluviométrie
Cumul
Date
Heure
Températures Humidité Point de rosée Vitesse
du vent
Direction Rafales Windchill Pression Pluviométrie
Cumul
05/12/2021 12:306.6 °C83 %3.9 °C11 km/h34 km/h4.31009 hPa0.2 mm
05/12/2021 12:106.6 °C84 %4.1 °C11 km/h26 km/h4.41010 hPa0.2 mm
05/12/2021 12:005.9 °C86 %3.8 °C11 km/h24 km/h3.11009 hPa0.2 mm
05/12/2021 11:405.6 °C87 %3.6 °C10 km/h24 km/h3.11009 hPa0.2 mm
05/12/2021 11:305.1 °C88 %3.3 °C8 km/hOSO21 km/h2.91009 hPa0.2 mm
05/12/2021 11:104.6 °C89 %2.9 °C8 km/hOSO18 km/h2.01009 hPa0.2 mm
05/12/2021 11:004.1 °C90 %2.6 °C7 km/hOSO19 km/h2.01009 hPa0.2 mm
05/12/2021 10:403.6 °C91 %2.3 °C6 km/hOSO15 km/h3.61009 hPa0.2 mm
05/12/2021 10:303.2 °C92 %2.0 °C7 km/hOSO15 km/h3.21009 hPa0.2 mm
05/12/2021 10:102.8 °C92 %1.6 °C7 km/hOSO18 km/h2.81009 hPa0.2 mm
05/12/2021 10:002.7 °C92 %1.5 °C6 km/hOSO15 km/h2.71009 hPa0.2 mm
05/12/2021 09:402.6 °C92 %1.4 °C6 km/hOSO16 km/h0.31009 hPa0.2 mm
05/12/2021 09:302.4 °C92 %1.3 °C4 km/hOSO15 km/h2.41009 hPa0.0 mm
05/12/2021 09:102.2 °C92 %1.1 °C4 km/hOSO10 km/h2.21009 hPa0.0 mm
05/12/2021 09:001.9 °C93 %0.9 °C4 km/hOSO6 km/h1.91009 hPa0.0 mm
05/12/2021 08:401.7 °C93 %0.7 °C4 km/hOSO8 km/h1.71009 hPa0.0 mm
05/12/2021 08:301.6 °C93 %0.6 °C4 km/hOSO10 km/h1.61008 hPa0.0 mm
05/12/2021 08:101.6 °C93 %0.6 °C4 km/hOSO10 km/h1.61008 hPa0.0 mm
05/12/2021 08:001.5 °C94 %0.6 °C4 km/hOSO8 km/h1.51008 hPa0.0 mm
05/12/2021 07:401.6 °C94 %0.7 °C3 km/hOSO8 km/h1.61008 hPa0.0 mm
05/12/2021 07:301.6 °C93 %0.6 °C4 km/hOSO5 km/h1.61008 hPa0.0 mm
05/12/2021 07:101.8 °C93 %0.8 °C4 km/h8 km/h1.81008 hPa0.0 mm
05/12/2021 07:001.9 °C93 %0.9 °C4 km/hOSO8 km/h1.91008 hPa0.0 mm
05/12/2021 06:402.0 °C93 %1.0 °C4 km/hOSO13 km/h2.01008 hPa0.0 mm
05/12/2021 06:302.1 °C93 %1.0 °C4 km/hOSO10 km/h2.11008 hPa0.0 mm
05/12/2021 06:102.2 °C93 %1.2 °C4 km/hOSO8 km/h2.21008 hPa0.0 mm
05/12/2021 06:002.3 °C92 %1.1 °C4 km/hOSO5 km/h2.31008 hPa0.0 mm
05/12/2021 05:402.6 °C92 %1.4 °C5 km/hOSO8 km/h2.61007 hPa0.0 mm
05/12/2021 05:302.7 °C92 %1.5 °C5 km/hOSO10 km/h2.71008 hPa0.0 mm
05/12/2021 05:102.9 °C92 %1.7 °C5 km/h11 km/h2.91007 hPa0.0 mm
05/12/2021 05:002.9 °C92 %1.8 °C5 km/hOSO8 km/h2.91007 hPa0.0 mm
05/12/2021 04:403.2 °C91 %1.8 °C5 km/hOSO10 km/h3.21007 hPa0.0 mm
05/12/2021 04:303.3 °C91 %2.0 °C6 km/hOSO10 km/h3.31007 hPa0.0 mm
05/12/2021 04:103.6 °C90 %2.1 °C6 km/hOSO10 km/h3.61008 hPa0.0 mm
05/12/2021 04:003.8 °C90 %2.3 °C7 km/hSO13 km/h3.81008 hPa0.0 mm
05/12/2021 03:403.8 °C91 %2.4 °C7 km/h13 km/h3.81008 hPa0.0 mm
05/12/2021 03:303.6 °C91 %2.3 °C6 km/hOSO11 km/h3.61008 hPa0.0 mm
05/12/2021 03:103.5 °C92 %2.3 °C6 km/h11 km/h1.31008 hPa0.0 mm
05/12/2021 03:003.3 °C92 %2.2 °C6 km/h15 km/h3.31008 hPa0.0 mm
05/12/2021 02:403.3 °C92 %2.1 °C5 km/hOSO11 km/h3.31008 hPa0.0 mm
05/12/2021 02:303.3 °C91 %2.0 °C5 km/h11 km/h3.31008 hPa0.0 mm
05/12/2021 02:103.4 °C91 %2.1 °C5 km/hOSO11 km/h3.41008 hPa0.0 mm
05/12/2021 02:003.3 °C91 %2.0 °C4 km/h11 km/h3.31008 hPa0.0 mm
05/12/2021 01:403.3 °C91 %2.0 °C5 km/h10 km/h3.31008 hPa0.0 mm
05/12/2021 01:303.4 °C90 %1.9 °C5 km/hOSO8 km/h3.41008 hPa0.0 mm
05/12/2021 01:103.5 °C91 %2.2 °C6 km/hOSO11 km/h3.51009 hPa0.0 mm
05/12/2021 01:003.5 °C91 %2.2 °C6 km/hOSO11 km/h3.51009 hPa-
05/12/2021 00:303.5 °C91 %2.2 °C5 km/hOSO13 km/h3.51009 hPa12.2 mm
05/12/2021 00:103.6 °C91 %2.2 °C5 km/hOSO10 km/h3.61009 hPa12.2 mm
05/12/2021 00:00---6 km/h---0 hPa12.2 mm


Minima :

Température : 1.5 °C
Humidité : 83 %
Point de rosée : 0.6 °C
Vent moyen : 3 km/h
Windchill : 0.3
Pression atm. : 0 hPa
Maxima :

Température : 6.6 °C
Humidité : 94 %
Point de rosée : 4.1 °C
Vent moyen : 11 km/h
Windchill : 4.4
Pression atm. : 1010 hPa
Rafales max : 34 km/h
Cumul de pluie sur 24H : 12.2 mm

Athee-sur-Cher est une commune du département Indre-et-Loire (37).
La station météorologique du réseau de l'association la plus proche de Athée-sur-Cher est celle de Véretz



Icône Facebook Association Météo Centre Icône Twitter Association Météo Centre Icône Chaîne Youtube Association Météo Centre Icône contact Association Météo Centre Icône Insta Association Météo Centre